www.pogodaiklimat.ru

Погода и климат >> Архив погоды >> Россия >> Якутия >> Усть-Чаркы


ПОГОДА в Усть-Чарках

  • Прогноз погоды в Усть-Чарках
  • Монитор погоды в Усть-Чарках
  • Климат города

АРХИВ ПОГОДЫ в Усть-Чарках

Время (UTC), дата Ветер
(напр.,м/с)
 
Видим.   Явления Облачность Т
(С)
Тd
(С)
f
(%)
Тe
(С)
Тes
(С)
Комфортность P
(гПа)
Po
(гПа)
Тmin
(С)
Tmax
(С)
R
(мм)
R24
(мм)
S
(см)
12 18.09 штиль 0 10 км слабый дождь 10/10 300 м
[Frnb Ns]
+2.0 +1.5 96 +1 +1 1014.5 980.7
15 18.09 штиль 0 10 км слабый дождь 10/10 300 м
[Frnb Ns]
+1.5 +1.5 100 0 0 1014.7 980.8
18 18.09 штиль 0 50 км {дождь} 10/10 300 м
[St]
+1.1 +1.1 100 -0 -0 1014.8 980.9
21 18.09 штиль 0 50 км 10/8 300 м
[St Ac trans Ci fib]
+1.8 +0.5 91 +1 +1 1014.8 980.9 +0.9 0.7
00 19.09 СЗ 1 50 км 10/10 300 м
[St]
+2.1 -0.1 85 0 0 1014.9 981.1
03 19.09 С 1 50 км 10/8 300 м
[St Ac und]
+2.9 -0.1 81 +1 +2 1014.8 981.2
06 19.09 З 2 50 км 10/10 300 м
[St]
+3.5 -0.6 75 +1 +1 1014.8 981.2
09 19.09 штиль 0 50 км 10/10 300 м
[St]
+2.7 +0.3 84 +2 +2 1015.3 981.5 +3.8
12 19.09 З 1 50 км 10/10 300 м
[St]
+2.4 +0.3 86 +1 +1 1015.6 981.8
15 19.09 штиль 0 50 км 10/10 300 м
[St]
+1.9 -0.9 82 +1 +1 1015.4 981.6
18 19.09 штиль 0 50 км 10/10 300 м
[St]
+1.2 -1.1 85 0 0 1015.2 981.3
21 19.09 ЮЗ 1 50 км 10/10 300 м
[St]
+0.9 -0.5 90 -1 -1 1015.1 981.2 +0.9
00 20.09 З 1 50 км 10/9 300 м
[St As op]
+2.7 -0.6 79 +1 +1 1015.6 981.8
03 20.09 З 1 50 км 10/8 300 м
[St As op]
+4.1 -0.8 70 +3 +3 1015.4 981.9
06 20.09 З 1 50 км 10/6 300 м
[St As op]
+4.6 -1.7 64 +4 +4 1015.4 981.9
09 20.09 З 1 50 км 9/4 300 м
[St Ac As]
+3.3 -1.7 70 +2 +2 1015.6 982.0 +4.9
12 20.09 штиль 0 50 км 10/10 300 м
[Cb cap]
+2.7 -1.2 75 +2 +2 1016.0 982.2
15 20.09 штиль 0 50 км 6/6 600 м
[Cb cap]
-0.8 -3.6 81 -2 -2 1016.5 982.4
18 20.09 штиль 0 50 км 10/10 600 м
[Cb cap]
-0.9 -1.8 94 -2 -2 1016.9 982.8
21 20.09 штиль 0 50 км 10/10 600 м
[Cb cap]
-0.4 -1.3 94 -2 -2 1017.3 983.2 -2.3
00 21.09 штиль 0 50 км 10/10 1000 м
[Sc]
+1.3 -1.3 83 0 0 1017.7 983.7
03 21.09 штиль 0 50 км 10/10 1000 м
[Sc]
+3.4 -1.0 73 +3 +3 1017.2 983.5
06 21.09 штиль 0 50 км 10/10 1000 м
[Sc]
+4.1 -3.4 58 +4 +4 1017.1 983.5
09 21.09 штиль 0 50 км 9/9 1000 м
[Sc]
+3.5 -3.9 58 +3 +3 1017.4 983.7 +4.6
12 21.09 штиль 0 50 км 9/9 1000 м
[Sc]
-0.3 -3.4 80 -1 -1 1017.9 983.6
15 21.09 штиль 0 50 км 9/9 1000 м
[Sc]
-0.5 -2.3 88 -2 -2 1017.8 983.5
18 21.09 штиль 0 50 км 8/8 1000 м
[Sc]
-0.7 -1.9 92 -2 -2 1017.5 983.4
21 21.09 штиль 0 50 км в посл. час ливневой снег 6/6 600 м
[Cb cap]
-0.9 -2.5 89 -2 -2 1017.4 983.3 -2.1 4 2
00 22.09 СВ 1 50 км {ливн. осадки} 9/9 600 м
[Cb cap]
-1.2 -2.8 89 -3 -3 1017.9 983.5 -5.0
03 22.09 штиль 0 50 км в посл. час ливневой снег 8/6 300 м
[Cb cap Ac trans]
+0.3 -2.4 82 -1 0 1017.4 983.4
06 22.09 штиль 0 50 км {ливн. осадки} 1/0
[Ci fib]
+2.7 -6.2 52 +2 +4 1015.6 981.8
09 22.09 штиль 0 50 км 4/0
[Ci sp]
-1.9 -6.5 71 -3 -3 1014.4 980.1 +3.1 0.5
12 22.09 штиль 0 50 км 6/0
[Ac trans Ci fib]
-7.8 -9.2 90 -9 -9 1015.1 980.0
15 22.09 штиль 0 50 км 10/0
[Ac trans Ci fib]
-7.9 -8.1 98 -9 -9 1013.8 978.7
18 22.09 штиль 0 50 км 10/0
[Ac und]
-5.0 -5.6 96 -6 -6 1012.6 977.9
21 22.09 штиль 0 10 км слабый снег 10/0
[As op]
-4.2 -4.7 96 -5 -5 1012.1 977.5 -8.6 0.2 1
00 23.09 штиль 0 10 км слабый снег 10/0
[As op]
-2.1 -2.7 96 -3 -3 1012.0 977.7
03 23.09 СЗ 1 50 км в посл. час снег 10/6 1000 м
[Sc As op]
+0.3 -1.1 90 -2 -1 1012.1 978.2
06 23.09 штиль 0 50 км {снег} 10/4 600 м
[Cb cap Ac As]
+1.1 -2.1 79 0 0 1012.8 979.0
09 23.09 штиль 0 50 км {ливн. осадки} 10/8 300 м
[Cb cap Ac As]
+0.4 -1.9 85 -1 -1 1013.9 980.0 +1.4 1
12 23.09 штиль 0 50 км {ливн. осадки} 10/10 300 м
[Cb cap]
-0.4 -1.9 90 -2 -2 1015.2 981.1
15 23.09 штиль 0 50 км 10/10 600 м
[Cb cap]
-0.5 -1.4 94 -2 -2 1015.4 981.3
18 23.09 штиль 0 50 км 10/10 600 м
[Cb cap]
-0.9 -1.6 95 -2 -2 1015.2 981.1
21 23.09 штиль 0 50 км {ливн. осадки} 10/10 600 м
[Cb cap]
-0.8 -0.9 99 -2 -2 1015.1 981.0 -0.9 0.2 1
00 24.09 штиль 0 50 км {ливн. осадки} 10/8 600 м
[Cb cap As op]
+0.6 -1.1 88 -1 -1 1015.3 981.3
03 24.09 В 2 50 км 10/3 1000 м
[Sc Cs]
+4.5 -2.5 60 +2 +4 1014.3 980.8
06 24.09 В 1 50 км 8/4 1000 м
[Sc Cs]
+6.0 -1.5 59 +5 +6 1012.8 979.6
09 24.09 штиль 0 50 км 9/4 1000 м
[Sc Ac As Ci fib]
+2.5 -3.1 67 +2 +2 1012.0 978.3 +6.3
12 24.09 штиль 0 50 км 10/0
[Cs]
-0.5 -1.1 96 -2 -2 1011.3 977.4
15 24.09 штиль 0 50 км 10/0
[Cs]
+1.3 -0.7 87 0 0 1010.6 976.9
18 24.09 штиль 0 10 км слабый снег {дождь} 10/0
[As op]
+0.8 +0.8 100 -1 -1 1010.4 976.7
21 24.09 штиль 0 50 км {снег} 10/3 300 м
[St As op]
+1.5 +1.5 100 0 0 1009.6 975.9 -0.5 0.3 1
00 25.09 штиль 0 50 км {снег} 10/10 1000 м
[Sc]
+2.7 +2.7 100 +1 +1 1010.4 976.8
03 25.09 ЮЗ 1 50 км 10/10 1000 м
[Sc]
+4.3 +2.8 90 +3 +3 1010.1 976.8
06 25.09 штиль 0 50 км {дождь} 10/3 300 м
[St As op]
+4.5 +3.5 93 +3 +4 1010.9 977.5
09 25.09 штиль 0 50 км {дождь} 10/10 300 м
[St]
+3.7 +3.2 97 +2 +2 1011.4 978.0 +4.8 3

 

Местоположение метеостанции Усть-Чаркы (Якутия, Россия): широта 66.80 долгота 136.60 высота над уровнем моря 274 м.

В архиве по умолчанию представлена погода в Усть-Чарках за последнюю неделю. Архивные данные за месяц целиком и за предыдущие месяцы, начиная с января 2011 года, Вы можете получить, выбрав интересующий диапазон дат из раскрывающегося списка и нажав кнопку "Ввод!".


*Определитесь, кто Вы:
робот инопланетянин человек

Внимание! Время в таблицах - всемирное. Для получения местного времени необходимо прибавить поправку, которая в Усть-Чарках равна 10 ч.

Смотрите также архив погоды в соседних городах и на ближайших метеорологических станциях:

Погода в Батагае (Якутия, Россия) (128 км)
Погода в Верхоянске (Якутия, Россия) (162 км)
Погода в Иэме (Якутия, Россия) (171 км)
Погода в Екюччю (Якутия, Россия) (219 км)
Погода в Батагай-Алыте (Якутия, Россия) (288 км)
Погода в Усть-Моме (Якутия, Россия) (294 км)
Погода в Депутатском (Якутия, Россия) (316 км)
Погода в Томпо (Якутия, Россия) (319 км)
Погода в Себян-Кюеле (Якутия, Россия) (341 км)
Погода в Усть-Куйге (Якутия, Россия) (358 км)

Пояснения к столбцам:

Ветер - указаны скорость ветра в м/с - средняя за 10 мин, порывы в срок и между сроками (в фигурных скобках) и направление, откуда дует ветер: С - северный, СВ - северо-восточный, В - восточный, ЮВ - юго-восточный, Ю - южный, ЮЗ - юго-западный, З - западный, СЗ - северо-западный.
Видимость - горизонтальная дальность видимости в метрах или километрах. При видимости от 1 до 10 км при отсутствии осадков обычно наблюдается дымка, при ухудшении видимости до 1 км и менее - туман. В сухую погоду видимость может ухудшаться дымом, пылью или мглою.
Явления - указаны атмосферные явления, наблюдавшиеся в срок или в последний час перед сроком; фигурными скобками обозначены явления, наблюдавшиеся между сроками (за 1-3 часа до срока); квадратными скобками обозначены град или гололедные отложения с указанием их диаметра в мм.
Облачность - указаны через наклонную черту общая и нижняя облачность в баллах и высота нижней границы облаков в метрах; квадратными скобками обозначены формы облаков: Ci - перистые, Cs - перисто-слоистые, Cc - перисто-кучевые, Ac - высококучевые, As - высокослоистые, Sc - слоисто-кучевые, Ns - слоисто-дождевые, Cu - кучевые, Cb - кучево-дождевые. Подробнее классификацию облаков см. в Атласе облаков (PDF).
T - Температура воздуха - температура, измеренная на высоте 2 м над землей.
Td - Температура точки росы - температура, при понижении до которой содержащийся в воздухе водяной пар достигнет насыщения.
f - Относительная влажность воздуха - влажноcть воздуха, измеренная на высоте 2 м над землей.
Te - Эффективная температура - температура, которую ощущает одетый по сезону человек в тени. Характеристика душности погоды. При расчете учитывается влияние влажности воздуха и скорости ветра на теплоощущения человека.
Tes - Эффективная температура на солнце - температура, которую ощущает человек, с поправкой на солнечный нагрев. Характеристика знойности погоды. Зависит от высоты солнца над горизонтом, облачности и скорости ветра. Ночью, в пасмурную погоду, а также при ветре 12 м/с и более поправка равна нулю.
P - Атмосферное давление - приведенное к уровню моря атмосферное давление.
Po - Атмосферное давление - измеренное на уровне метеостанции атмосферное давление.
Tmin - Минимальная температура - минимум температуры воздуха на высоте 2 м над землей.
Tmax - Максимальная температура - максимум температуры воздуха на высоте 2 м над землей.
R - Количество осадков - Количество выпавших осадков за период времени, мм. При наведении курсора мыши на число - период времени, за который выпало указанное количество осадков.
R24 - Количество осадков - Количество выпавших осадков за 24 часа, мм.
S - Снежный покров - Высота снежного покрова, см. При наведении курсора мыши на число - состояние снежного покрова и степень покрытия местности в баллах.